Location: Marquette
(46.5440°N, 87.3950°W)
Time: 18:40:01
(UTC-04:00)

Daily predictions for brighter satellites

Satellite Brightness Start Highest point End
(mag) Time Altitude Azimuth Time Altitude Azimuth Time Altitude Azimuth
Cosmos 1812 4.2 21:16:31 10° NNW 21:20:12 41° W 21:23:51 10° SSW
Cosmos 1655 Rocket 4.1 21:16:08 10° S 21:22:20 65° E 21:28:37 10° NNE
Helios 1A 3.9 21:22:48 10° SE 21:26:37 33° ENE 21:30:26 10° N
Cosmos 1741 Rocket 4.4 21:22:29 10° NNW 21:27:35 49° ENE 21:32:40 10° SE
Cosmos 2360 4.3 21:24:21 10° SSW 21:30:04 87° ESE 21:35:48 10° NNE
ERS-1 Rocket 4.1 21:27:01 10° ESE 21:31:11 27° ENE 21:35:21 10° N
ATLAS 3B R/B 3.5 21:25:21 10° NNW 21:31:42 38° NE 21:37:47 10° ESE
H-2A R/B 3.8 21:30:52 10° E 21:33:37 15° ENE 21:36:20 10° NNE
USA 186 2.2 21:31:21 10° S 21:34:41 70° WSW 21:38:05 10° NNW
Cosmos 1602 3.7 21:31:28 10° S 21:35:16 64° E 21:39:05 10° NNE
Okean 2 Rocket 3.5 21:30:58 10° SSW 21:35:27 72° W 21:40:00 10° N
Meteor 1-11 Rocket 4.0 21:30:23 10° SSE 21:35:59 50° E 21:41:31 10° NNE
Envisat 3.0 21:31:14 10° SSE 21:36:19 86° ENE 21:41:26 10° NNW
BREEZE M DEB (TANK) 4.2 21:28:27 10° W 21:41:08 74° NNW 21:44:52 10° ENE
Abrixas rocket 2.5 21:39:58 10° W 21:43:14 65° N 21:46:32 10° ENE
SL-8 R/B 3.9 21:39:37 10° W 21:44:25 71° N 21:49:13 10° E
GENESIS II 4.4 21:40:31 10° NW 21:44:28 74° SW 21:48:20 10° SSE
SJ-11-01 4.3 21:40:23 10° SSE 21:45:01 73° ENE 21:49:42 10° N
Cosmos 2278 Rocket 4.5 21:46:46 10° NNE 21:48:18 11° NNE 21:49:50 10° NE
ARGOS 4.2 21:45:46 12° ESE 21:50:00 30° ENE 21:54:36 10° N
Cosmos 2263 Rocket 2.3 21:44:50 10° NNW 21:50:32 67° ENE 21:55:53 12° SE
Cosmos 2322 Rocket 2.3 21:48:05 10° S 21:53:40 59° ESE 21:59:16 10° NNE
Meteor 1-23 Rocket 4.3 21:51:48 10° N 21:57:19 58° ENE 22:02:41 11° SSE
Cosmos 1844 Rocket 4.2 21:53:32 10° N 21:57:59 23° NE 22:02:00 12° E
Cosmos 1939 Rocket 3.1 21:57:30 10° S 22:01:28 70° WSW 22:05:25 10° NNW
SL-16 R/B 2.1 21:58:44 10° SSW 22:04:22 70° ESE 22:10:01 10° NNE
Cosmos 1536 2.8 22:03:52 10° S 22:07:55 71° E 22:11:59 10° NNE
Lacrosse 5 rocket 3.3 22:05:19 10° W 22:07:58 19° SW 22:10:41 10° S
ATLAS 2AS CENTAUR R/B 3.2 22:01:07 10° S 22:08:25 48° ESE 22:16:07 10° NE
Cosmos 1850 Rocket 4.2 22:05:10 10° NNW 22:10:31 74° WSW 22:15:44 10° SSE
Cosmos 1452 Rocket 4.3 22:05:36 10° SW 22:10:47 57° WNW 22:16:01 10° NNE
YAOGAN 6 2.7 22:08:50 10° S 22:12:22 71° WSW 22:15:54 10° NNW
Cosmos 2322 4.5 22:09:02 10° SSE 22:13:49 29° ESE 22:18:38 10° NE
Cosmos 1420 Rocket 4.2 22:08:47 10° SSW 22:13:57 74° WNW 22:19:10 10° NNE
Helios 1B rocket 2.3 22:14:00 10° NNE 22:18:06 68° ESE 22:22:11 10° S
Cosmos 839 Rocket 4.4 22:12:23 10° SW 22:18:32 69° NW 22:24:57 10° NNE
NOSS 2-3 (E) 3.9 22:14:13 10° SSW 22:18:53 65° SE 22:24:25 10° NE
Okean 1 Rocket 3.0 22:16:09 10° S 22:20:27 67° E 22:24:50 10° NNE
Cosmos 1607 4.1 22:15:21 10° NW 22:21:50 84° WSW 22:26:39 19° SSE
COSMOS 2428 4.0 22:22:19 19° ESE 22:22:46 20° E 22:26:44 10° NE
MetOp-B 4.2 22:19:54 19° SSE 22:23:47 64° ENE 22:29:05 10° N
Okean 1-7 Rocket 3.7 22:19:21 10° N 22:23:48 61° ENE 22:26:34 22° SSE
Resurs 01 Rocket 4.1 22:20:35 10° SW 22:23:59 21° W 22:27:25 10° NW
Cosmos 1500 4.2 22:24:18 26° ESE 22:24:58 28° E 22:28:19 10° NNE
Cosmos 1300 Rocket 3.7 22:21:00 10° SSW 22:25:18 74° W 22:29:38 10° N
Tiangong 1 2.0 22:23:51 10° WSW 22:26:14 26° SSW 22:26:22 26° S
Cosmos 2315 Rocket 4.0 22:20:34 10° N 22:26:49 72° E 22:31:52 17° SSE
Cosmos 2360 Rocket 2.4 22:22:24 10° S 22:27:43 45° ESE 22:33:03 10° NE
Cosmos 1980 Rocket 4.1 22:24:09 10° WSW 22:29:08 32° NW 22:34:09 10° NNE
Cosmos 2266 Rocket 3.9 22:23:32 10° S 22:29:34 86° W 22:35:39 10° N
Cosmos 1025 Rocket 2.9 22:26:07 10° N 22:30:25 76° E 22:32:56 24° SSE
SeaSat 1 3.1 22:26:56 10° NNE 22:31:47 58° NW 22:36:37 10° SW
BREEZE-M DEB (TANK) 0.7 22:29:42 10° WSW 22:32:18 84° SSE 22:32:24 77° E
Meteor 1-5 Rocket 4.0 22:27:41 10° S 22:33:02 87° E 22:38:21 10° NNE
Cosmos 220 Rocket 4.0 22:29:00 10° NNW 22:33:18 77° WSW 22:35:52 24° SSE
SPOT 1/Viking Rocket 4.1 22:31:56 25° ESE 22:34:28 43° ENE 22:39:24 10° N
Cosmos 2333 Rocket 4.2 22:38:20 10° ENE 22:38:20 10° ENE 22:38:36 10° ENE
Nadezhda 2 Rocket 4.4 22:31:03 10° S 22:37:05 67° E 22:43:16 10° NNE
SPOT 5 3.0 22:35:22 28° SE 22:37:46 55° ENE 22:42:19 10° N
Lacrosse 5 1.9 22:38:39 10° SSW 22:43:36 56° SE 22:48:34 10° ENE
BREEZE-M DEB 3.6 22:35:27 10° WNW 22:45:19 75° NNE 22:47:00 31° E
NOAA 11 4.4 22:41:13 16° S 22:45:38 69° WSW 22:51:09 10° NNW
CZ-4B DEB 4.2 22:48:19 21° SW 22:49:37 30° W 22:52:14 10° NNW
USA 245 3.7 22:47:46 29° SSE 22:50:24 80° ENE 22:54:44 10° N
H-2A R/B 4.0 22:50:04 16° ENE 22:50:46 16° ENE 22:53:30 10° NNE
NOSS 2-3 (C) 4.2 22:47:46 10° SW 22:52:34 75° NW 22:58:19 10° NE
Okean 2 3.6 22:50:30 10° NNW 22:54:35 68° W 22:56:27 30° S
Atlas Centaur 2 4.1 22:51:37 10° SW 22:56:30 18° SSW 22:58:01 17° S
Cosmos 1745 Rocket 4.4 22:55:56 32° SE 22:57:50 40° E 23:03:31 10° NNE
Meteor 1-29 4.0 22:54:55 10° N 22:58:13 45° WNW 23:00:59 13° SW
NOSS 3-2 (A) 4.2 22:54:45 10° NW 23:02:01 60° NE 23:06:18 29° ESE
USA 238 DEB 3.7 22:55:51 10° NW 23:02:59 89° SW 23:06:30 33° SE
USA 238 3.7 22:55:57 10° NW 23:03:05 90° WSW 23:06:37 33° SE
Cosmos 1066 Rocket 4.1 22:59:37 10° N 23:05:02 73° ENE 23:07:04 39° SSE
ERS-1 Rocket 3.9 23:06:24 19° SSW 23:09:44 44° W 23:14:34 10° NNW
Cosmos 1626 Rocket 4.5 23:06:02 10° N 23:09:56 32° ENE 23:09:56 32° ENE
Cosmos 1666 4.4 23:11:49 22° ENE 23:11:49 22° ENE 23:13:51 10° NNE
Cosmos 1892 Rocket 3.5 23:06:41 10° N 23:11:10 90° SW 23:12:13 52° S
H-2A R/B 1.9 23:10:30 40° SSE 23:12:23 87° W 23:17:25 10° NNW
Landsat 7 3.8 23:13:15 51° SE 23:14:16 66° ENE 23:19:01 10° N
Abrixas rocket 2.7 23:16:50 10° WNW 23:19:36 58° NW 23:19:36 58° NW
Cosmos 724 4.5 23:16:01 10° NNW 23:21:54 61° NE 23:23:40 42° ESE
Cosmos 1743 3.6 23:23:01 38° NE 23:23:01 38° NE 23:25:45 10° NNE
ATLAS 3B R/B 2.8 23:16:08 10° NW 23:22:46 62° WSW 23:25:20 37° S
EXPRESS MD2 4.1 23:19:53 10° W 23:23:22 65° N 23:30:26 10° ENE
Cosmos 1975 2.7 23:23:15 74° SSW 23:23:35 85° WNW 23:27:36 10° N
SL-08 RB Rocket 4.3 23:23:36 35° SSW 23:25:09 51° W 23:29:36 10° NNW
GP-B 3.7 23:22:23 10° NNE 23:26:15 42° ENE 23:26:15 42° ENE
SL-8 R/B 3.6 23:22:16 10° WNW 23:27:01 66° SSW 23:27:23 63° S
Cosmos 1544 Rocket 3.5 23:28:19 66° S 23:28:56 90° SW 23:33:26 10° N
Cosmos 405 3.3 23:29:33 63° WNW 23:29:33 63° WNW 23:33:04 10° N
Terra 1.8 23:29:05 60° ESE 23:29:37 65° ENE 23:34:20 10° N
Meteor 1-12 Rocket 4.1 23:27:35 40° S 23:29:44 86° E 23:35:25 10° NNE
ARGOS 4.0 23:27:18 24° SSW 23:30:04 43° W 23:35:11 10° NNW
Cosmos 1241 Rocket 4.5 23:29:18 34° S 23:32:07 62° ESE 23:38:30 10° NE
Cosmos 2263 Rocket 4.2 23:29:48 10° NW 23:33:54 21° W 23:37:36 11° SW
Cosmos 2278 Rocket 2.8 23:28:36 10° NNW 23:34:01 43° NE 23:35:15 38° E
Cosmos 1486 Rocket 4.2 23:30:23 10° NNW 23:35:35 64° WSW 23:36:47 49° SSW
Cosmos 1302 Rocket 3.9 23:35:30 40° SSW 23:37:28 87° WNW 23:42:46 10° NNE
Cosmos 2322 Rocket 4.3 23:33:17 10° WSW 23:38:06 28° NW 23:42:57 10° N
Cosmos 2237 4.2 23:34:51 22° SSW 23:38:36 83° WNW 23:44:21 10° NNE
NOSS 3-2 (C) 4.0 23:32:28 10° NW 23:39:53 73° NE 23:42:56 42° ESE
Cosmos 1455 Rocket 3.1 23:41:14 70° SW 23:41:39 77° W 23:46:08 10° N
Cosmos 1844 Rocket 2.7 23:36:49 10° NNW 23:42:30 75° WSW 23:43:39 56° S
ATLAS CENTAUR R/B 3.8 23:43:32 10° N 23:45:05 12° NNE 23:45:53 12° NE
Nadezhda 1 Rocket 4.0 23:40:05 10° N 23:46:25 86° W 23:48:14 50° S
SL-16 R/B 4.5 23:44:30 10° W 23:49:02 24° NW 23:53:35 10° N
Cosmos 968 Rocket 4.2 23:47:28 10° N 23:52:16 38° ENE 23:52:31 38° ENE
IGS 5A 3.7 23:55:06 66° WNW 23:55:06 66° WNW 23:58:53 10° NNW
